This is the latest recevied weather packets stored in our database for station/object KN6ETB-1. If no packets are shown the sender has not sent any weather packets the latest 10 day(s).
| Time | Temp. | Humidity | Pressure | Rain* | Wind** | Luminosity | Snow |
|---|---|---|---|---|---|---|---|
| 1777934679 | 17.22° C | 61% | 1012.1 hPa | 0 mm | - | 77 W/m² | - |
| 1777934376 | 17.22° C | 62% | 1011.9 hPa | 0 mm | - | 95 W/m² | - |
| 1777934072 | 17.22° C | 61% | 1012 hPa | 0 mm | - | 87 W/m² | - |
| 1777933767 | 17.22° C | 61% | 1011.9 hPa | 0 mm | - | 75 W/m² | - |
| 1777933465 | 17.22° C | 60% | 1012.1 hPa | 0 mm | - | 78 W/m² | - |
| 1777933163 | 17.22° C | 59% | 1012 hPa | 0 mm | - | 77 W/m² | - |
| 1777932860 | 17.78° C | 58% | 1012 hPa | 0 mm | - | 88 W/m² | - |
| 1777932557 | 17.78° C | 58% | 1012.1 hPa | 0 mm | - | 102 W/m² | - |
| 1777932253 | 17.78° C | 59% | 1012.3 hPa | 0 mm | - | 125 W/m² | - |
| 1777931951 | 17.78° C | 59% | 1012.3 hPa | 0 mm | - | 128 W/m² | - |
| 1777931647 | 17.22° C | 60% | 1012.5 hPa | 0 mm | - | 121 W/m² | - |
| 1777931343 | 17.22° C | 60% | 1012.4 hPa | 0 mm | - | 121 W/m² | - |
| 1777931040 | 17.22° C | 61% | 1012.5 hPa | 0 mm | - | 121 W/m² | - |
| 1777930737 | 17.22° C | 61% | 1012.4 hPa | 0 mm | - | 100 W/m² | - |
| 1777930433 | 17.78° C | 60% | 1012.3 hPa | 0 mm | - | 117 W/m² | - |
| 1777930130 | 17.78° C | 60% | 1012.3 hPa | 0 mm | - | 143 W/m² | - |
| 1777929826 | 17.78° C | 60% | 1012.4 hPa | 0 mm | - | 179 W/m² | - |
| 1777929524 | 17.78° C | 61% | 1012.3 hPa | 0 mm | - | 211 W/m² | - |
| 1777929220 | 17.78° C | 61% | 1012.1 hPa | 0 mm | - | 216 W/m² | - |
| 1777928918 | 17.78° C | 60% | 1012.3 hPa | 0 mm | - | 203 W/m² | - |
| 1777928614 | 17.78° C | 57% | 1012.4 hPa | 0 mm | - | 187 W/m² | - |
| 1777928311 | 18.33° C | 58% | 1012.2 hPa | 0 mm | - | 262 W/m² | - |
| 1777928009 | 17.78° C | 57% | 1012.4 hPa | 0 mm | - | 267 W/m² | - |
| 1777927707 | 17.78° C | 57% | 1012.4 hPa | 0 mm | - | 216 W/m² | - |
| 1777927406 | 17.78° C | 58% | 1012.4 hPa | 0 mm | - | 230 W/m² | - |
* Rain latest hour (hover to see other rain measurements)
** Current wind speed in m/s (hover to see current wind gust speed)